| time (UTC) | temp C | wind direction | speed KPH | gust KPH | rain 1hr cm | rain 24hr cm | rain mn cm | humidity % | barometer mb |
| 20260507041035 | 17 | 346 | 0.0 | 4.8 | 0.00 | 0.00 | 0.00 | 78 | 1021.2 |
| 20260507040531 | 17 | 254 | 4.8 | 9.7 | 0.00 | 0.00 | 0.00 | 77 | 1021.3 |
| 20260507040027 | 17 | 282 | 8.0 | 8.0 | 0.00 | 0.00 | 0.00 | 76 | 1021.2 |
| 20260507035523 | 17 | 270 | 0.0 | 4.8 | 0.00 | 0.00 | 0.00 | 76 | 1021.2 |
| 20260507035020 | 17 | 291 | 1.6 | 4.8 | 0.00 | 0.00 | 0.00 | 75 | 1020.9 |
| 20260507034517 | 17 | 290 | 3.2 | 4.8 | 0.00 | 0.00 | 0.00 | 75 | 1021.0 |
| 20260507034015 | 17 | 337 | 1.6 | 6.4 | 0.00 | 0.00 | 0.00 | 74 | 1020.8 |
| 20260507033513 | 17 | 233 | 3.2 | 9.7 | 0.00 | 0.00 | 0.00 | 73 | 1020.7 |
| 20260507033010 | 18 | 217 | 0.0 | 8.0 | 0.00 | 0.00 | 0.00 | 73 | 1020.7 |
| 20260507032506 | 18 | 233 | 0.0 | 8.0 | 0.00 | 0.00 | 0.00 | 72 | 1021.0 |
| 20260507032003 | 18 | 346 | 0.0 | 8.0 | 0.00 | 0.00 | 0.00 | 71 | 1020.8 |
| 20260507031459 | 18 | 283 | 1.6 | 6.4 | 0.00 | 0.00 | 0.00 | 71 | 1020.5 |
| 20260507030956 | 18 | 270 | 0.0 | 6.4 | 0.00 | 0.00 | 0.00 | 71 | 1020.8 |
| 20260507030453 | 18 | 243 | 0.0 | 6.4 | 0.00 | 0.00 | 0.00 | 71 | 1020.7 |
| 20260507025950 | 18 | 270 | 0.0 | 4.8 | 0.00 | 0.00 | 0.00 | 71 | 1020.5 |
| 20260507025447 | 18 | 283 | 3.2 | 3.2 | 0.00 | 0.00 | 0.00 | 72 | 1020.6 |
| 20260507024945 | 18 | 243 | 4.8 | 6.4 | 0.00 | 0.00 | 0.00 | 72 | 1020.8 |
| 20260507024442 | 18 | 255 | 4.8 | 11.3 | 0.00 | 0.00 | 0.00 | 71 | 1020.5 |
| 20260507023938 | 18 | 244 | 8.0 | 12.9 | 0.00 | 0.00 | 0.00 | 70 | 1020.5 |
| 20260507023435 | 18 | 304 | 3.2 | 8.0 | 0.00 | 0.00 | 0.00 | 69 | 1020.4 |
| 20260507022932 | 19 | 270 | 0.0 | 6.4 | 0.00 | 0.00 | 0.00 | 68 | 1020.3 |
| 20260507022429 | 19 | 270 | 1.6 | 6.4 | 0.00 | 0.00 | 0.00 | 68 | 1020.1 |
| 20260507021925 | 19 | 342 | 3.2 | 8.0 | 0.00 | 0.00 | 0.00 | 68 | 1020.1 |
| 20260507021420 | 20 | 250 | 4.8 | 8.0 | 0.00 | 0.00 | 0.00 | 67 | 1020.1 |
| 20260507020918 | 20 | 7 | 0.0 | 6.4 | 0.00 | 0.00 | 0.00 | 65 | 1020.2 |
| 20260507020414 | 20 | 244 | 6.4 | 11.3 | 0.00 | 0.00 | 0.00 | 65 | 1020.1 |
| 20260507015912 | 20 | 249 | 0.0 | 8.0 | 0.00 | 0.00 | 0.00 | 64 | 1020.1 |
| 20260507015410 | 20 | 262 | 3.2 | 9.7 | 0.00 | 0.00 | 0.00 | 63 | 1020.0 |
| 20260507014907 | 20 | 270 | 3.2 | 8.0 | 0.00 | 0.00 | 0.00 | 64 | 1019.7 |
| 20260507014403 | 20 | 325 | 1.6 | 9.7 | 0.00 | 0.00 | 0.00 | 64 | 1019.8 |
| 20260507013859 | 20 | 266 | 0.0 | 11.3 | 0.00 | 0.00 | 0.00 | 64 | 1019.8 |
| 20260507013356 | 20 | 270 | 0.0 | 8.0 | 0.00 | 0.00 | 0.00 | 64 | 1019.6 |
| 20260507012854 | 20 | 258 | 6.4 | 9.7 | 0.00 | 0.00 | 0.00 | 65 | 1019.7 |
| 20260507012349 | 20 | 254 | 0.0 | 9.7 | 0.00 | 0.00 | 0.00 | 65 | 1019.7 |
| 20260507011847 | 21 | 331 | 0.0 | 8.0 | 0.00 | 0.00 | 0.00 | 64 | 1019.6 |
| 20260507011344 | 21 | 285 | 4.8 | 9.7 | 0.00 | 0.00 | 0.00 | 64 | 1019.7 |
| 20260507010838 | 21 | 225 | 3.2 | 11.3 | 0.00 | 0.00 | 0.00 | 62 | 1019.6 |
| 20260507010334 | 21 | 226 | 6.4 | 8.0 | 0.00 | 0.00 | 0.00 | 62 | 1019.6 |
| 20260507005831 | 21 | 290 | 3.2 | 9.7 | 0.00 | 0.00 | 0.00 | 61 | 1019.6 |
| 20260507005328 | 21 | 266 | 4.8 | 9.7 | 0.00 | 0.00 | 0.00 | 61 | 1019.6 |
| 20260507004824 | 21 | 246 | 4.8 | 9.7 | 0.00 | 0.00 | 0.00 | 60 | 1019.6 |
| 20260507004321 | 21 | 243 | 3.2 | 9.7 | 0.00 | 0.00 | 0.00 | 60 | 1019.6 |
| 20260507003819 | 22 | 257 | 3.2 | 9.7 | 0.00 | 0.00 | 0.00 | 59 | 1019.5 |
| 20260507003314 | 21 | 255 | 4.8 | 9.7 | 0.00 | 0.00 | 0.00 | 59 | 1019.5 |
| 20260507002809 | 22 | 293 | 11.3 | 14.5 | 0.00 | 0.00 | 0.00 | 58 | 1019.5 |
| 20260507002306 | 22 | 220 | 3.2 | 8.0 | 0.00 | 0.00 | 0.00 | 57 | 1019.7 |
| 20260507001803 | 22 | 213 | 4.8 | 9.7 | 0.00 | 0.00 | 0.00 | 58 | 1019.5 |
| 20260507001300 | 22 | 282 | 3.2 | 9.7 | 0.00 | 0.00 | 0.00 | 57 | 1019.4 |
| 20260507000756 | 22 | 225 | 0.0 | 6.4 | 0.00 | 0.00 | 0.00 | 57 | 1019.4 |
| 20260507000252 | 22 | 340 | 1.6 | 8.0 | 0.00 | 0.00 | 0.00 | 57 | 1019.3 |
| 20260506235749 | 22 | 253 | 9.7 | 9.7 | 0.00 | 0.00 | 0.00 | 58 | 1019.5 |
| 20260506235244 | 22 | 254 | 1.6 | 11.3 | 0.00 | 0.00 | 0.00 | 58 | 1019.2 |
| 20260506234742 | 22 | 283 | 3.2 | 8.0 | 0.00 | 0.00 | 0.00 | 58 | 1019.4 |
| 20260506234239 | 22 | 222 | 4.8 | 12.9 | 0.00 | 0.00 | 0.00 | 58 | 1019.5 |
| 20260506233736 | 22 | 237 | 3.2 | 9.7 | 0.00 | 0.00 | 0.00 | 57 | 1019.5 |
| 20260506233233 | 22 | 4 | 3.2 | 8.0 | 0.00 | 0.00 | 0.00 | 57 | 1019.4 |
| 20260506232729 | 22 | 350 | 4.8 | 8.0 | 0.00 | 0.00 | 0.00 | 57 | 1019.4 |
| 20260506232224 | 22 | 225 | 4.8 | 6.4 | 0.00 | 0.00 | 0.00 | 56 | 1019.3 |
| 20260506231722 | 22 | 255 | 9.7 | 9.7 | 0.00 | 0.00 | 0.00 | 55 | 1019.3 |
| 20260506231220 | 22 | 302 | 6.4 | 9.7 | 0.00 | 0.00 | 0.00 | 55 | 1019.0 |
| 20260506230716 | 22 | 236 | 4.8 | 8.0 | 0.00 | 0.00 | 0.00 | 54 | 1019.5 |
| 20260506230213 | 23 | 209 | 3.2 | 6.4 | 0.00 | 0.00 | 0.00 | 55 | 1019.6 |
| 20260506225710 | 23 | 234 | 4.8 | 11.3 | 0.00 | 0.00 | 0.00 | 55 | 1019.4 |
| 20260506225207 | 22 | 289 | 1.6 | 9.7 | 0.00 | 0.00 | 0.00 | 54 | 1019.4 |
| 20260506224703 | 22 | 203 | 4.8 | 4.8 | 0.00 | 0.00 | 0.00 | 52 | 1019.7 |
| 20260506224201 | 22 | 270 | 3.2 | 11.3 | 0.00 | 0.00 | 0.00 | 53 | 1019.7 |
| 20260506223656 | 22 | 225 | 3.2 | 9.7 | 0.00 | 0.00 | 0.00 | 53 | 1019.8 |
| 20260506223152 | 22 | 225 | 3.2 | 9.7 | 0.00 | 0.00 | 0.00 | 53 | 1019.8 |
| 20260506222649 | 22 | 225 | 3.2 | 9.7 | 0.00 | 0.00 | 0.00 | 53 | 1019.8 |
| 20260506222145 | 22 | 289 | 0.0 | 6.4 | 0.00 | 0.00 | 0.00 | 53 | 1019.9 |
| 20260506221643 | 23 | 201 | 9.7 | 9.7 | 0.00 | 0.00 | 0.00 | 52 | 1019.9 |
| 20260506221141 | 22 | 270 | 0.0 | 4.8 | 0.00 | 0.00 | 0.00 | 54 | 1019.9 |
| 20260506220638 | 22 | 246 | 0.0 | 9.7 | 0.00 | 0.00 | 0.00 | 55 | 1020.2 |
| 20260506220133 | 21 | 258 | 0.0 | 8.0 | 0.00 | 0.00 | 0.00 | 55 | 1020.2 |
| 20260506215630 | 22 | 270 | 6.4 | 8.0 | 0.00 | 0.00 | 0.00 | 54 | 1020.4 |
| 20260506215125 | 22 | 278 | 6.4 | 6.4 | 0.00 | 0.00 | 0.00 | 56 | 1020.2 |
| 20260506214622 | 22 | 81 | 0.0 | 4.8 | 0.00 | 0.00 | 0.00 | 55 | 1020.3 |
| 20260506214120 | 22 | 247 | 0.0 | 8.0 | 0.00 | 0.00 | 0.00 | 55 | 1020.4 |
| 20260506213618 | 21 | 270 | 0.0 | 9.7 | 0.00 | 0.00 | 0.00 | 55 | 1020.6 |
| 20260506213115 | 22 | 23 | 1.6 | 8.0 | 0.00 | 0.00 | 0.00 | 55 | 1020.5 |
| 20260506212612 | 22 | 212 | 0.0 | 8.0 | 0.00 | 0.00 | 0.00 | 56 | 1020.7 |
| 20260506212107 | 22 | 277 | 1.6 | 9.7 | 0.00 | 0.00 | 0.00 | 55 | 1020.8 |
| 20260506211602 | 22 | 203 | 3.2 | 8.0 | 0.00 | 0.00 | 0.00 | 54 | 1020.8 |
| 20260506211100 | 22 | 222 | 4.8 | 8.0 | 0.00 | 0.00 | 0.00 | 55 | 1020.8 |
| 20260506210556 | 22 | 60 | 1.6 | 6.4 | 0.00 | 0.00 | 0.00 | 55 | 1020.6 |
| 20260506210053 | 22 | 279 | 0.0 | 6.4 | 0.00 | 0.00 | 0.00 | 56 | 1020.8 |
| 20260506205550 | 21 | 237 | 4.8 | 9.7 | 0.00 | 0.00 | 0.00 | 57 | 1020.9 |
| 20260506205044 | 21 | 257 | 0.0 | 3.2 | 0.00 | 0.00 | 0.00 | 57 | 1021.0 |
| 20260506204543 | 22 | 253 | 0.0 | 6.4 | 0.00 | 0.00 | 0.00 | 56 | 1021.0 |
| 20260506204040 | 21 | 86 | 4.8 | 4.8 | 0.00 | 0.00 | 0.00 | 57 | 1020.9 |
| 20260506203538 | 21 | 215 | 4.8 | 8.0 | 0.00 | 0.00 | 0.00 | 56 | 1021.0 |
| 20260506203034 | 22 | 221 | 6.4 | 6.4 | 0.00 | 0.00 | 0.00 | 56 | 1021.2 |
| 20260506202532 | 22 | 342 | 0.0 | 8.0 | 0.00 | 0.00 | 0.00 | 58 | 1021.1 |
| 20260506202028 | 21 | 206 | 4.8 | 8.0 | 0.00 | 0.00 | 0.00 | 59 | 1021.2 |
| 20260506201526 | 21 | 188 | 0.0 | 1.6 | 0.00 | 0.00 | 0.00 | 58 | 1021.4 |
| 20260506201022 | 20 | 145 | 0.0 | 6.4 | 0.00 | 0.00 | 0.00 | 59 | 1021.3 |
| 20260506200518 | 20 | 239 | 0.0 | 3.2 | 0.00 | 0.00 | 0.00 | 61 | 1021.5 |
| 20260506200015 | 20 | 241 | 0.0 | 6.4 | 0.00 | 0.00 | 0.00 | 61 | 1021.7 |
| 20260506195512 | 20 | 200 | 0.0 | 8.0 | 0.00 | 0.00 | 0.00 | 60 | 1021.6 |
| 20260506195008 | 21 | 234 | 4.8 | 8.0 | 0.00 | 0.00 | 0.00 | 59 | 1021.6 |
| 20260506194506 | 21 | 270 | 0.0 | 4.8 | 0.00 | 0.00 | 0.00 | 62 | 1021.6 |
| 20260506194002 | 21 | 81 | 0.0 | 4.8 | 0.00 | 0.00 | 0.00 | 60 | 1021.8 |
| 20260506193500 | 21 | 212 | 3.2 | 4.8 | 0.00 | 0.00 | 0.00 | 60 | 1021.9 |
| 20260506192956 | 20 | 297 | 0.0 | 4.8 | 0.00 | 0.00 | 0.00 | 61 | 1021.9 |
| 20260506192453 | 21 | 209 | 0.0 | 6.4 | 0.00 | 0.00 | 0.00 | 61 | 1021.8 |
| 20260506191944 | 20 | 258 | 0.0 | 9.7 | 0.00 | 0.00 | 0.00 | 64 | 1021.9 |
| 20260506191441 | 20 | 208 | 0.0 | 9.7 | 0.00 | 0.00 | 0.00 | 63 | 1022.2 |
| 20260506190937 | 20 | 230 | 6.4 | 8.0 | 0.00 | 0.00 | 0.00 | 62 | 1021.9 |
| 20260506190434 | 20 | 342 | 0.0 | 6.4 | 0.00 | 0.00 | 0.00 | 63 | 1021.8 |
| 20260506185931 | 21 | 225 | 4.8 | 4.8 | 0.00 | 0.00 | 0.00 | 60 | 1022.2 |
| 20260506185428 | 21 | 319 | 3.2 | 8.0 | 0.00 | 0.00 | 0.00 | 60 | 1022.2 |
| 20260506184925 | 21 | 201 | 3.2 | 8.0 | 0.00 | 0.00 | 0.00 | 59 | 1022.1 |
| 20260506184422 | 20 | 270 | 0.0 | 4.8 | 0.00 | 0.00 | 0.00 | 63 | 1022.2 |
| 20260506183919 | 21 | 199 | 6.4 | 9.7 | 0.00 | 0.00 | 0.00 | 62 | 1022.2 |
| 20260506183414 | 20 | 209 | 1.6 | 11.3 | 0.00 | 0.00 | 0.00 | 62 | 1022.5 |
| 20260506182912 | 21 | 262 | 1.6 | 6.4 | 0.00 | 0.00 | 0.00 | 62 | 1022.5 |
| 20260506182409 | 20 | 300 | 0.0 | 3.2 | 0.00 | 0.00 | 0.00 | 58 | 1022.3 |
| 20260506181907 | 20 | 110 | 6.4 | 6.4 | 0.00 | 0.00 | 0.00 | 57 | 1022.4 |
| 20260506181404 | 20 | 262 | 0.0 | 4.8 | 0.00 | 0.00 | 0.00 | 59 | 1022.4 |
| 20260506180901 | 19 | 319 | 3.2 | 3.2 | 0.00 | 0.00 | 0.00 | 59 | 1022.6 |
| 20260506180357 | 18 | 233 | 3.2 | 4.8 | 0.00 | 0.00 | 0.00 | 60 | 1022.4 |
| 20260506175854 | 18 | 348 | 1.6 | 9.7 | 0.00 | 0.00 | 0.00 | 61 | 1022.4 |
| 20260506175350 | 19 | 270 | 4.8 | 4.8 | 0.00 | 0.00 | 0.00 | 59 | 1022.6 |
| 20260506174848 | 19 | 143 | 3.2 | 4.8 | 0.00 | 0.00 | 0.00 | 62 | 1022.6 |
| 20260506174345 | 18 | 257 | 0.0 | 3.2 | 0.00 | 0.00 | 0.00 | 60 | 1022.4 |
| 20260506173843 | 18 | 220 | 0.0 | 4.8 | 0.00 | 0.00 | 0.00 | 60 | 1022.5 |
| 20260506173339 | 17 | 99 | 0.0 | 0.0 | 0.00 | 0.00 | 0.00 | 62 | 1022.7 |
| 20260506172836 | 18 | 144 | 0.0 | 3.2 | 0.00 | 0.00 | 0.00 | 61 | 1022.5 |
| 20260506172333 | 19 | 263 | 0.0 | 4.8 | 0.00 | 0.00 | 0.00 | 61 | 1022.6 |
| 20260506171830 | 18 | 96 | 0.0 | 4.8 | 0.00 | 0.00 | 0.00 | 63 | 1022.7 |
| 20260506171327 | 17 | 258 | 3.2 | 3.2 | 0.00 | 0.00 | 0.00 | 64 | 1022.5 |
| 20260506170825 | 17 | 249 | 0.0 | 3.2 | 0.00 | 0.00 | 0.00 | 63 | 1022.6 |
| 20260506170320 | 18 | 240 | 3.2 | 3.2 | 0.00 | 0.00 | 0.00 | 63 | 1022.6 |
| 20260506165820 | 18 | 105 | 0.0 | 1.6 | 0.00 | 0.00 | 0.00 | 64 | 1022.3 |
| 20260506165317 | 17 | 340 | 0.0 | 1.6 | 0.00 | 0.00 | 0.00 | 66 | 1022.5 |
| 20260506164813 | 17 | 117 | 0.0 | 4.8 | 0.00 | 0.00 | 0.00 | 64 | 1022.7 |
| 20260506164310 | 17 | 120 | 0.0 | 4.8 | 0.00 | 0.00 | 0.00 | 66 | 1022.5 |
| 20260506163808 | 17 | 339 | 0.0 | 3.2 | 0.00 | 0.00 | 0.00 | 66 | 1022.6 |
| 20260506163302 | 17 | 240 | 0.0 | 3.2 | 0.00 | 0.00 | 0.00 | 67 | 1022.6 |
| 20260506162758 | 17 | 342 | 1.6 | 3.2 | 0.00 | 0.00 | 0.00 | 67 | 1022.6 |
| 20260506162256 | 16 | 257 | 0.0 | 4.8 | 0.00 | 0.00 | 0.00 | 70 | 1022.7 |
| 20260506161753 | 16 | 270 | 0.0 | 3.2 | 0.00 | 0.00 | 0.00 | 69 | 1022.6 |
| 20260506161250 | 17 | 337 | 0.0 | 0.0 | 0.00 | 0.00 | 0.00 | 70 | 1022.6 |
| 20260506160747 | 16 | 246 | 0.0 | 1.6 | 0.00 | 0.00 | 0.00 | 69 | 1022.2 |
| 20260506160243 | 17 | 121 | 0.0 | 8.0 | 0.00 | 0.00 | 0.00 | 71 | 1022.6 |
| 20260506155737 | 18 | 255 | 0.0 | 1.6 | 0.00 | 0.00 | 0.00 | 72 | 1022.7 |
| 20260506155233 | 17 | 243 | 0.0 | 3.2 | 0.00 | 0.00 | 0.00 | 74 | 1022.5 |
| 20260506153347 | 16 | 160 | 0.0 | 3.2 | 0.00 | 0.00 | 0.00 | 78 | 1022.8 |
| 20260506152843 | 16 | 243 | 0.0 | 4.8 | 0.00 | 0.00 | 0.00 | 80 | 1022.5 |
| 20260506152341 | 16 | 139 | 0.0 | 3.2 | 0.00 | 0.00 | 0.00 | 79 | 1022.8 |
| 20260506151839 | 16 | 164 | 0.0 | 0.0 | 0.00 | 0.00 | 0.00 | 81 | 1022.8 |
| 20260506151335 | 16 | 160 | 0.0 | 3.2 | 0.00 | 0.00 | 0.00 | 82 | 1022.9 |
| 20260506150833 | 15 | 106 | 0.0 | 3.2 | 0.00 | 0.00 | 0.00 | 82 | 1022.7 |
| 20260506150329 | 15 | 349 | 3.2 | 3.2 | 0.00 | 0.00 | 0.00 | 82 | 1022.7 |
| 20260506145826 | 15 | 157 | 0.0 | 1.6 | 0.00 | 0.00 | 0.00 | 84 | 1022.7 |
| 20260506145322 | 15 | 135 | 0.0 | 0.0 | 0.00 | 0.00 | 0.00 | 84 | 1022.6 |
| 20260506144820 | 15 | 277 | 0.0 | 3.2 | 0.00 | 0.00 | 0.00 | 84 | 1022.6 |
| 20260506144316 | 15 | 312 | 0.0 | 3.2 | 0.00 | 0.00 | 0.00 | 84 | 1022.9 |
| 20260506143815 | 15 | 90 | 0.0 | 1.6 | 0.00 | 0.00 | 0.00 | 85 | 1022.5 |
| 20260506143312 | 15 | 111 | 0.0 | 1.6 | 0.00 | 0.00 | 0.00 | 86 | 1022.6 |
| 20260506142810 | 14 | 275 | 0.0 | 3.2 | 0.00 | 0.00 | 0.00 | 87 | 1022.7 |
| 20260506142308 | 14 | 209 | 0.0 | 0.0 | 0.00 | 0.00 | 0.00 | 88 | 1022.6 |
| 20260506141806 | 13 | 111 | 0.0 | 0.0 | 0.00 | 0.00 | 0.00 | 90 | 1022.7 |
| 20260506141304 | 13 | 340 | 0.0 | 0.0 | 0.00 | 0.00 | 0.00 | 91 | 1022.6 |
| 20260506140801 | 13 | 340 | 0.0 | 1.6 | 0.00 | 0.00 | 0.00 | 93 | 1022.4 |
| 20260506140258 | 12 | 168 | 0.0 | 1.6 | 0.00 | 0.00 | 0.00 | 94 | 1022.4 |
| 20260506135755 | 12 | 131 | 0.0 | 0.0 | 0.00 | 0.00 | 0.00 | 95 | 1022.6 |
| 20260506135251 | 12 | 131 | 0.0 | 0.0 | 0.00 | 0.00 | 0.00 | 96 | 1022.2 |
| 20260506134748 | 12 | 99 | 0.0 | 0.0 | 0.00 | 0.00 | 0.00 | 96 | 1022.4 |
| 20260506134244 | 12 | 99 | 0.0 | 0.0 | 0.00 | 0.00 | 0.00 | 96 | 1022.5 |
| 20260506133742 | 11 | 99 | 0.0 | 0.0 | 0.00 | 0.00 | 0.00 | 96 | 1022.3 |
| 20260506133238 | 11 | 99 | 0.0 | 0.0 | 0.00 | 0.00 | 0.00 | 96 | 1022.2 |
| 20260506132735 | 11 | 99 | 0.0 | 0.0 | 0.00 | 0.00 | 0.00 | 96 | 1022.3 |
| 20260506132232 | 11 | 99 | 0.0 | 0.0 | 0.00 | 0.00 | 0.00 | 96 | 1022.2 |
| 20260506131730 | 11 | 99 | 0.0 | 0.0 | 0.00 | 0.00 | 0.00 | 96 | 1022.3 |
| 20260506131226 | 11 | 99 | 0.0 | 0.0 | 0.00 | 0.00 | 0.00 | 96 | 1022.1 |
| 20260506130723 | 11 | 99 | 0.0 | 0.0 | 0.00 | 0.00 | 0.00 | 95 | 1022.2 |
| 20260506130220 | 11 | 99 | 0.0 | 0.0 | 0.00 | 0.00 | 0.00 | 95 | 1022.0 |
| 20260506125718 | 11 | 99 | 0.0 | 0.0 | 0.00 | 0.00 | 0.00 | 95 | 1021.8 |
| 20260506125215 | 11 | 99 | 0.0 | 0.0 | 0.00 | 0.00 | 0.00 | 95 | 1022.0 |
| 20260506124713 | 11 | 346 | 0.0 | 0.0 | 0.00 | 0.00 | 0.00 | 95 | 1021.7 |
| 20260506124211 | 11 | 346 | 0.0 | 0.0 | 0.00 | 0.00 | 0.00 | 95 | 1021.6 |
| 20260506123708 | 11 | 346 | 0.0 | 0.0 | 0.00 | 0.00 | 0.00 | 95 | 1021.6 |
| 20260506123207 | 11 | 90 | 0.0 | 0.0 | 0.00 | 0.00 | 0.00 | 94 | 1021.8 |
| 20260506122703 | 11 | 90 | 0.0 | 0.0 | 0.00 | 0.00 | 0.00 | 94 | 1021.6 |
| 20260506122201 | 11 | 157 | 0.0 | 0.0 | 0.00 | 0.00 | 0.00 | 94 | 1021.5 |
| 20260506121659 | 11 | 157 | 0.0 | 0.0 | 0.00 | 0.00 | 0.00 | 94 | 1021.7 |
| 20260506121155 | 11 | 157 | 0.0 | 0.0 | 0.00 | 0.00 | 0.00 | 94 | 1021.6 |
| 20260506120653 | 11 | 157 | 0.0 | 0.0 | 0.00 | 0.00 | 0.00 | 94 | 1021.6 |
| 20260506120150 | 11 | 157 | 0.0 | 0.0 | 0.00 | 0.00 | 0.00 | 94 | 1021.7 |
| 20260506115648 | 11 | 157 | 0.0 | 0.0 | 0.00 | 0.00 | 0.00 | 94 | 1021.5 |
| 20260506115146 | 11 | 157 | 0.0 | 0.0 | 0.00 | 0.00 | 0.00 | 94 | 1021.4 |
| 20260506114643 | 12 | 157 | 0.0 | 0.0 | 0.00 | 0.00 | 0.00 | 94 | 1021.7 |
| 20260506114141 | 12 | 157 | 0.0 | 0.0 | 0.00 | 0.00 | 0.00 | 93 | 1021.6 |
| 20260506113639 | 12 | 157 | 0.0 | 0.0 | 0.00 | 0.00 | 0.00 | 94 | 1021.4 |
| 20260506113136 | 12 | 157 | 0.0 | 0.0 | 0.00 | 0.00 | 0.00 | 94 | 1021.4 |
| 20260506112632 | 12 | 157 | 0.0 | 0.0 | 0.00 | 0.00 | 0.00 | 94 | 1021.4 |
| 20260506112130 | 12 | 157 | 0.0 | 0.0 | 0.00 | 0.00 | 0.00 | 94 | 1021.2 |
| 20260506111628 | 12 | 157 | 0.0 | 0.0 | 0.00 | 0.00 | 0.00 | 94 | 1021.2 |
| 20260506111125 | 12 | 180 | 0.0 | 0.0 | 0.00 | 0.00 | 0.00 | 94 | 1021.4 |
| 20260506110622 | 12 | 180 | 0.0 | 0.0 | 0.00 | 0.00 | 0.00 | 95 | 1021.3 |
| 20260506110120 | 12 | 180 | 0.0 | 0.0 | 0.00 | 0.00 | 0.00 | 95 | 1021.3 |
| 20260506105616 | 12 | 180 | 0.0 | 0.0 | 0.00 | 0.00 | 0.00 | 95 | 1021.5 |
| 20260506105113 | 12 | 180 | 0.0 | 0.0 | 0.00 | 0.00 | 0.00 | 95 | 1021.4 |
| 20260506104611 | 12 | 180 | 0.0 | 0.0 | 0.00 | 0.00 | 0.00 | 95 | 1021.3 |
| 20260506104108 | 12 | 180 | 0.0 | 0.0 | 0.00 | 0.00 | 0.00 | 95 | 1021.3 |
| 20260506103605 | 13 | 180 | 0.0 | 0.0 | 0.00 | 0.00 | 0.00 | 95 | 1021.4 |
| 20260506103102 | 13 | 180 | 0.0 | 0.0 | 0.00 | 0.00 | 0.00 | 95 | 1021.6 |
| 20260506102600 | 13 | 180 | 0.0 | 0.0 | 0.00 | 0.00 | 0.00 | 95 | 1021.5 |
| 20260506102058 | 13 | 180 | 0.0 | 0.0 | 0.00 | 0.00 | 0.00 | 95 | 1021.3 |
| 20260506101554 | 13 | 180 | 0.0 | 0.0 | 0.00 | 0.00 | 0.00 | 95 | 1021.4 |
| 20260506101051 | 13 | 180 | 0.0 | 0.0 | 0.00 | 0.00 | 0.00 | 95 | 1021.2 |
| 20260506100549 | 13 | 180 | 0.0 | 0.0 | 0.00 | 0.00 | 0.00 | 95 | 1021.3 |
| 20260506100047 | 13 | 180 | 0.0 | 0.0 | 0.00 | 0.00 | 0.00 | 95 | 1021.5 |
| 20260506095546 | 13 | 90 | 0.0 | 0.0 | 0.00 | 0.00 | 0.00 | 95 | 1021.4 |
| 20260506095042 | 13 | 90 | 0.0 | 0.0 | 0.00 | 0.00 | 0.00 | 95 | 1021.5 |
| 20260506094540 | 13 | 90 | 0.0 | 0.0 | 0.00 | 0.00 | 0.00 | 95 | 1021.3 |
| 20260506094037 | 13 | 90 | 0.0 | 0.0 | 0.00 | 0.00 | 0.00 | 95 | 1021.4 |
| 20260506093536 | 13 | 90 | 0.0 | 0.0 | 0.00 | 0.00 | 0.00 | 94 | 1021.6 |
| 20260506093033 | 13 | 90 | 0.0 | 0.0 | 0.00 | 0.00 | 0.00 | 94 | 1021.6 |
| 20260506092530 | 13 | 90 | 0.0 | 0.0 | 0.00 | 0.00 | 0.00 | 94 | 1021.5 |
| 20260506092027 | 13 | 90 | 0.0 | 0.0 | 0.00 | 0.00 | 0.00 | 94 | 1021.4 |
| 20260506091525 | 13 | 90 | 0.0 | 0.0 | 0.00 | 0.00 | 0.00 | 94 | 1021.5 |
| 20260506091022 | 13 | 90 | 0.0 | 0.0 | 0.00 | 0.00 | 0.00 | 94 | 1021.4 |
| 20260506090520 | 13 | 90 | 0.0 | 0.0 | 0.00 | 0.00 | 0.00 | 93 | 1021.5 |
| 20260506090016 | 13 | 90 | 0.0 | 0.0 | 0.00 | 0.00 | 0.00 | 93 | 1021.6 |
| 20260506085513 | 13 | 90 | 0.0 | 0.0 | 0.00 | 0.00 | 0.00 | 93 | 1021.7 |
| 20260506085009 | 13 | 90 | 0.0 | 0.0 | 0.00 | 0.00 | 0.00 | 92 | 1021.6 |
| 20260506084506 | 13 | 90 | 0.0 | 0.0 | 0.00 | 0.00 | 0.00 | 92 | 1021.6 |
| 20260506084002 | 13 | 90 | 0.0 | 0.0 | 0.00 | 0.00 | 0.00 | 92 | 1021.8 |
| 20260506083500 | 13 | 90 | 0.0 | 0.0 | 0.00 | 0.00 | 0.00 | 92 | 1021.7 |
| 20260506082957 | 13 | 90 | 0.0 | 0.0 | 0.00 | 0.00 | 0.00 | 91 | 1021.7 |
| 20260506082454 | 13 | 90 | 0.0 | 0.0 | 0.00 | 0.00 | 0.00 | 91 | 1021.7 |
| 20260506081949 | 14 | 90 | 0.0 | 0.0 | 0.00 | 0.00 | 0.00 | 91 | 1021.9 |
| 20260506081448 | 14 | 90 | 0.0 | 0.0 | 0.00 | 0.00 | 0.00 | 91 | 1021.9 |
| 20260506080945 | 13 | 90 | 0.0 | 0.0 | 0.00 | 0.00 | 0.00 | 91 | 1021.8 |
| 20260506080442 | 13 | 90 | 0.0 | 0.0 | 0.00 | 0.00 | 0.00 | 90 | 1021.8 |
| 20260506073426 | 14 | 114 | 0.0 | 1.6 | 0.00 | 0.00 | 0.00 | 89 | 1021.8 |
| 20260506072923 | 14 | 111 | 0.0 | 0.0 | 0.00 | 0.00 | 0.00 | 89 | 1021.8 |
| 20260506072420 | 14 | 120 | 0.0 | 1.6 | 0.00 | 0.00 | 0.00 | 89 | 1021.7 |
| 20260506071918 | 15 | 83 | 0.0 | 3.2 | 0.00 | 0.00 | 0.00 | 89 | 1021.7 |
| 20260506071416 | 15 | 111 | 1.6 | 3.2 | 0.00 | 0.00 | 0.00 | 88 | 1021.8 |
| 20260506070912 | 14 | 90 | 0.0 | 0.0 | 0.00 | 0.00 | 0.00 | 88 | 1021.9 |
| 20260506070409 | 14 | 112 | 0.0 | 0.0 | 0.00 | 0.00 | 0.00 | 88 | 1021.5 |
| 20260506062347 | 14 | 105 | 0.0 | 0.0 | 0.00 | 0.15 | 0.15 | 85 | 1021.3 |
| 20260506061842 | 14 | 105 | 0.0 | 1.6 | 0.00 | 0.15 | 0.15 | 86 | 1021.4 |
| 20260506061339 | 14 | 270 | 0.0 | 0.0 | 0.00 | 0.15 | 0.15 | 85 | 1021.4 |
| 20260506060837 | 14 | 270 | 0.0 | 0.0 | 0.00 | 0.15 | 0.15 | 84 | 1021.4 |
| 20260506060335 | 14 | 270 | 0.0 | 0.0 | 0.00 | 0.15 | 0.15 | 84 | 1021.1 |
| 20260506051307 | 15 | 270 | 0.0 | 0.0 | 0.00 | 0.15 | 0.15 | 77 | 1020.9 |
| 20260506050805 | 15 | 270 | 0.0 | 0.0 | 0.00 | 0.15 | 0.15 | 76 | 1020.9 |
| 20260506050302 | 15 | 270 | 0.0 | 0.0 | 0.00 | 0.15 | 0.15 | 76 | 1020.8 |
| 20260506044752 | 16 | 282 | 0.0 | 0.0 | 0.00 | 0.15 | 0.15 | 74 | 1020.6 |
| 20260506044250 | 16 | 282 | 0.0 | 0.0 | 0.00 | 0.15 | 0.15 | 74 | 1020.4 |
| 20260506043747 | 16 | 282 | 0.0 | 3.2 | 0.00 | 0.15 | 0.15 | 73 | 1020.3 |
| 20260506043244 | 16 | 270 | 0.0 | 0.0 | 0.00 | 0.15 | 0.15 | 73 | 1020.3 |
| 20260506042743 | 16 | 270 | 0.0 | 1.6 | 0.00 | 0.15 | 0.15 | 72 | 1020.1 |
| 20260506042242 | 16 | 246 | 0.0 | 0.0 | 0.00 | 0.15 | 0.15 | 72 | 1020.1 |
| 20260506041739 | 16 | 246 | 0.0 | 3.2 | 0.00 | 0.15 | 0.15 | 71 | 1020.3 |